Flag for Austria Weather past 2 weeks in Klagenfurt, Carinthia, Austria

Now
25 °F

Clear.


Feels Like: 25 °F
Forecast: 28 / 35 °F
Wind: 1 mph from North

Location: Klagenfurt-Flughafen

Current Time: Dec 23, 2014 at 6:32:11 AM

Latest Report: Dec 23, 2014 at 5:50 AM


Visibility: 10 mi

Pressure: 30.21 "Hg

Humidity: 100%

Dew point: 25 °F

Location of KlagenfurtLocation

Historic Weather in Klagenfurt — Graph

°F

Klagenfurt temperature yesterday

Maximum temperature yesterday: 34 °F (at 1:20 PM)
Minimum temperature yesterday: 25 °F (at 7:20 AM)
Average temperature yesterday: 29 °F

Past Weeks' High & Low Weather Summary

 TemperatureHumidityPressure
High48 °F (Dec 21, 1:50 PM)100% (Dec 8, 5:20 AM)30.42 "Hg (Dec 8, 5:20 AM)
Low23 °F (Dec 10, 7:20 AM)46% (Dec 21, 3:20 PM)29.86 "Hg (Dec 16, 5:20 PM)
Average33 °F94%30.11 "Hg
* Reported Dec 8 5:20 AM — Dec 23 5:20 AM, Klagenfurt, Weather by CustomWeather, © 2014

Note: Actual official high and low records may vary slightly from our data, if they occured in-between our weather recording intervals... More about our weather records

Advertising

Klagenfurt weather history for previous 24 hours

 ConditionsComfort  
Time TempWeatherWind HumidityBarometerVisibility
5:20 AM
Dec 23
27 °FClear.1 mph93%30.21 "Hg10 mi
4:20 AM27 °FClear.1 mph93%30.21 "Hg10 mi
3:50 AM28 °FClear.6 mph86%30.21 "Hg10 mi
3:20 AM27 °FChilly.3 mph93%30.24 "HgN/A
2:50 AM27 °FChilly.2 mph93%30.24 "HgN/A
2:20 AM28 °FChilly.6 mph93%30.24 "HgN/A
1:50 AM27 °FChilly.2 mph93%30.24 "HgN/A
1:20 AM28 °FChilly.1 mph93%30.24 "HgN/A
12:50 AM27 °FChilly.1 mph93%30.24 "HgN/A
12:20 AM28 °FChilly.2 mph93%30.27 "HgN/A
11:50 PM
Dec 22
28 °FClear.2 mph93%30.27 "Hg10 mi
11:20 PM30 °FClear.1 mph86%30.27 "Hg10 mi
10:50 PM30 °FClear.2 mph86%30.27 "Hg10 mi
10:20 PM30 °FClear.2 mph93%30.27 "Hg10 mi
9:50 PM30 °FPassing clouds.6 mph86%30.27 "HgN/A
9:20 PM30 °FClear.5 mph86%30.27 "Hg10 mi
8:50 PM30 °FClear.3 mph86%30.27 "Hg10 mi
8:20 PM30 °FClear.2 mph86%30.27 "Hg10 mi
7:50 PM30 °FClear.1 mph93%30.27 "Hg10 mi
7:20 PM30 °FClear.2 mph86%30.27 "Hg10 mi
6:50 PM30 °FClear.2 mph86%30.24 "Hg10 mi
6:20 PM30 °FClear.2 mph93%30.27 "Hg10 mi
5:50 PM32 °FPassing clouds.3 mph87%30.27 "HgN/A
5:20 PM32 °FPassing clouds.3 mph87%30.27 "HgN/A
4:50 PM32 °FClear.2 mph87%30.27 "Hg10 mi
4:20 PM32 °FClear.2 mph87%30.24 "Hg10 mi
3:50 PM32 °FSunny.1 mph87%30.24 "Hg10 mi
3:20 PM32 °FSunny.1 mph93%30.24 "Hg10 mi
2:50 PM32 °FSunny.1 mph93%30.24 "Hg10 mi
2:20 PM34 °FSunny.2 mph87%30.24 "Hg10 mi
1:50 PM34 °FSunny.1 mph81%30.24 "Hg10 mi
1:20 PM34 °FSunny.1 mph81%30.24 "Hg10 mi
12:50 PM32 °FSunny.3 mph80%30.27 "Hg10 mi
12:20 PM32 °FSunny.6 mph87%30.27 "Hg10 mi
11:50 AM32 °FSunny.5 mph80%30.30 "Hg10 mi
11:20 AM32 °FPassing clouds.3 mph80%30.30 "HgN/A
10:50 AM30 °FSunny.5 mph86%30.30 "Hg10 mi
10:20 AM30 °FSunny.2 mph86%30.30 "Hg10 mi
9:50 AM28 °FSunny.5 mph86%30.30 "Hg10 mi
9:20 AM28 °FSunny.2 mph86%30.30 "Hg10 mi
8:50 AM27 °FSunny.2 mph86%30.30 "Hg10 mi
8:20 AM27 °FSunny.2 mph86%30.30 "Hg10 mi
7:50 AM25 °FSunny.1 mph93%30.30 "Hg10 mi
7:20 AM25 °FClear.1 mph93%30.30 "Hg10 mi
6:50 AM27 °FClear.3 mph86%30.27 "Hg10 mi
6:20 AM27 °FClear.2 mph93%30.27 "Hg10 mi
Weather by CustomWeather, © 2014

See weather overviewHow to use our weather pages